Flag for Nepal Weather past 2 weeks in Kathmandu, Nepal

Now
75 °F

Scattered clouds.


Feels Like: 75 °F
Forecast: 59 / 80 °F
Wind: 5 mph from Southwest

Location: Kathmandu Airport

Current Time: Sep 1, 2015 at 7:00:20 PM

Latest Report: Sep 1, 2015 at 6:35 PM


Visibility: 4 mi

Pressure: 29.74 "Hg (25.60 "Hg at 1305m altitude)

Humidity: 83%

Dew point: 70 °F

Historic Weather in Kathmandu — Graph

°F

Kathmandu temperature yesterday

Maximum temperature yesterday: 82 °F (at 12:35 PM)
Minimum temperature yesterday: 70 °F (at 4:35 AM)
Average temperature yesterday: 75 °F

Past Weeks' High & Low Weather Summary

 TemperatureHumidityPressure
High86 °F (Aug 30, 2:35 PM)100% (Aug 18, 3:35 AM)29.95 "Hg (Aug 18, 3:35 AM)
Low66 °F (Aug 20, 11:35 PM)59% (Aug 30, 2:35 PM)29.74 "Hg (Sep 1, 2:35 PM)
Average74 °F86%29.85 "Hg
* Reported Aug 17 4:35 PM — Sep 1 4:35 PM, Kathmandu, Weather by CustomWeather, © 2015

Note: Actual official high and low records may vary slightly from our data, if they occured in-between our weather recording intervals... More about our weather records

Advertising

Kathmandu weather history for previous 24 hours

 ConditionsComfort  
Time TempWeatherWind HumidityBarometerVisibility
4:35 PM
Tue, Sep 1
79 °FScattered clouds.8 mph70%29.74 "Hg5 mi
3:35 PM77 °FBroken clouds.9 mph74%29.74 "Hg4 mi
2:35 PM81 °FBroken clouds.13 mph70%29.74 "Hg4 mi
1:35 PM81 °FBroken clouds.7 mph66%29.77 "Hg4 mi
12:35 PM81 °FBroken clouds.7 mph70%29.80 "Hg4 mi
10:35 AM79 °FScattered clouds.6 mph70%29.80 "Hg4 mi
8:35 AM75 °FSmoke.No wind78%29.80 "HgN/A
7:35 AM72 °FFog.2 mph88%29.80 "Hg2 mi
6:35 AM68 °FFog.3 mph94%29.80 "Hg3 mi
5:35 AM68 °FPassing clouds.No wind94%29.80 "Hg4 mi
4:35 AM68 °FPartly cloudy.No wind100%29.80 "Hg4 mi
3:35 AM70 °FPassing clouds.No wind94%29.80 "Hg4 mi
2:35 AM70 °FPassing clouds.No wind94%29.80 "Hg4 mi
1:35 AM70 °FPassing clouds.No wind94%29.83 "Hg4 mi
12:35 AM72 °FPartly cloudy.6 mph88%29.86 "Hg4 mi
11:35 PM
Mon, Aug 31
72 °FPartly cloudy.3 mph88%29.86 "Hg4 mi
10:35 PM73 °FThundershowers. Partly cloudy.3 mph83%29.86 "Hg4 mi
9:35 PM73 °FPartly cloudy.6 mph83%29.86 "Hg4 mi
8:35 PM73 °FThundershowers. Partly cloudy.6 mph83%29.83 "Hg4 mi
7:35 PM75 °FPartly cloudy.7 mph83%29.80 "Hg4 mi
Weather by CustomWeather, © 2015

See weather overviewHow to use our weather pages